This demonstration page uses our WeatherBlox Daily Observations layout. Learn more.

39.08367, -84.50855

Hourly Observations for June 10, 2019

Temp ( °F °C ) Dew Point ( °F °C ) Humidity (%) Winds ( mph kmh ) Pressure ( in mb ) Visibility ( mi km ) Precip ( " mm )
12:35 am 00:35 Mostly Cloudy 72 22.2 70 21.1 94 94 undefined N/A 29.89 1012 10 16.0934 0 0.0254
12:46 am 00:46 Mostly Cloudy 72 22.2 70 21.1 94 94 S 5 7 29.89 1012 10 16.0934 0 0.0254
12:53 am 00:53 Mostly Cloudy 72 22.2 69 20.6 91 91 S 7 11 29.9 1013 10 16.0934 0 0.0254
1:53 am 01:53 Cloudy with Light Rain 70 21.1 69 20.6 97 97 Calm 29.89 1012 10 16.0934 0.03 0.762
2:06 am 02:06 Cloudy with Light Rain 71 21.7 69 20.6 94 94 S 3 6 29.89 1012 10 16.0934 0 0.0254
2:53 am 02:53 Cloudy 70 21.1 69 20.6 97 97 S 5 7 29.87 1012 10 16.0934 0 0.0254
3:53 am 03:53 Cloudy with Light Rain 71 21.7 69 20.6 94 94 Calm 29.86 1011 10 16.0934 0.01 0.254
4:19 am 04:19 Cloudy 70 21.1 69 20.6 97 97 Calm 29.86 1011 10 16.0934 0 0.0254
4:53 am 04:53 Mostly Cloudy with Light Rain 70 21.1 69 20.6 97 97 Calm 29.85 1011 10 16.0934 0 0.0254
5:14 am 05:14 Cloudy with Light Rain 71 21.7 69 20.6 94 94 Calm 29.86 1011 10 16.0934 0 0.0254
5:35 am 05:35 Cloudy 70 21.1 69 20.6 97 97 SW 3 6 29.87 1011 10 16.0934 0 0.0254
5:53 am 05:53 Cloudy 70 21.1 69 20.6 97 97 SW 3 6 29.86 1011 10 16.0934 0 0.0254
6:36 am 06:36 Cloudy 70 21.1 69 20.6 97 97 Calm 29.87 1011 10 16.0934 0 0
6:53 am 06:53 Cloudy with Light Rain 71 21.7 69 20.6 94 94 Calm 29.88 1012 2.5 4.02335 0 0.0254
7:04 am 07:04 Cloudy with Light Rain 70 21.1 69 20.6 97 97 Calm 29.88 1012 4 6.43736 0.01 0.254
7:16 am 07:16 Cloudy with Mist and Fog 71 21.7 69 20.6 94 94 Calm 29.89 1012 3 4.82802 0.01 0.254
7:53 am 07:53 Cloudy with Mist and Fog 71 21.7 70 21.1 96 96 Calm 29.88 1012 3 4.82802 0.01 0.254
8:08 am 08:08 Cloudy with Mist and Fog 72 22.2 70 21.1 94 94 SSW 3 6 29.88 1012 3 4.82802 0 0
8:53 am 08:53 Cloudy with Light Rain 72 22.2 69 20.6 91 91 VRB 7 11 29.9 1012 4 6.43736 0 0.0254
9:53 am 09:53 Cloudy 73 22.8 67 19.4 81 81 WNW 8 13 29.92 1013 10 16.0934 0 0.0254
10:53 am 10:53 Cloudy 72 22.2 66 18.9 82 82 WNW 7 11 29.94 1014 10 16.0934 0 0
11:20 am 11:20 Cloudy 74 23.3 66 18.9 76 76 W 10 17 29.94 1014 10 16.0934 0 0
11:53 am 11:53 Partly Cloudy 75 23.9 66 18.9 74 74 NW 12 19 29.95 1014 10 16.0934 0 0
12:53 pm 12:53 Cloudy 78 25.6 65 18.3 64 64 WNW 10 17 29.95 1014 10 16.0934 0 0
1:53 pm 13:53 Mostly Cloudy 77 25 65 18.3 66 66 WNW 8 13 29.96 1015 10 16.0934 0 0
2:53 pm 14:53 Partly Cloudy 75 23.9 63 17.2 66 66 NNW 18 30 29.98 1015 10 16.0934 0 0
3:22 pm 15:22 Cloudy 73 22.8 62 16.7 69 69 WNW 13 20 30 1016 10 16.0934 0 0
3:53 pm 15:53 Cloudy 71 21.7 61 16.1 71 71 NW 14 22 30.02 1017 10 16.0934 0 0
4:53 pm 16:53 Mostly Cloudy 72 22.2 59 15 64 64 NNW 10 17 30.04 1017 10 16.0934 0 0
5:53 pm 17:53 Mostly Sunny 72 22.2 53 11.7 52 52 NW 16 26 30.05 1018 10 16.0934 0 0
6:53 pm 18:53 Mostly Sunny 72 22.2 52 11.1 50 50 NW 13 20 30.06 1018 10 16.0934 0 0
7:53 pm 19:53 Mostly Sunny 70 21.1 50 10 49 49 N 14 22 30.09 1019 10 16.0934 0 0
8:53 pm 20:53 Sunny 67 19.4 47 8.3 49 49 N 16 26 30.12 1020 10 16.0934 0 0
9:53 pm 21:53 Clear 64 17.8 47 8.3 54 54 N 5 7 30.15 1021 10 16.0934 0 0
10:53 pm 22:53 Clear 63 17.2 47 8.3 56 56 N 5 7 30.17 1022 10 16.0934 0 0
11:53 pm 23:53 Clear 57 13.9 51 10.6 81 81 Calm 30.17 1022 10 16.0934 0 0

Powered by AerisWeather